Showing default

HULIANWANG DIGUI-148, 67524

Orbit data source: Space-Track

HULIANWANG DIGUI-148, 67524 is a payload satellite owned by Zhongguo Xingwang (CN) in LEO that was launched on Mon, 19 Jan 2026 UTC via a CHANG ZHENG 12 launch vehicle from the Wenchang Satellite Launch Center (WSC). Payload-class satellites include a variety of spacecraft equipped with specific instruments for various scientific and technological missions. These include communications satellites like Starlink; space stations such as the ISS; scientific satellites like the Hubble; Earth observation satellites from companies like Planet Labs, Umbra, and HawkEye 360; GPS; miniature CubeSats for education and research; and military/defense satellites.

Loading next visibility...
Identifier
67524, 2026-013C
Orbit
LEO
Country
Flag of CNCN / PRC
Related business
Manufacturer
YINNT
Mission
Operational Civil Communications
Bus & Motor
XINGWANG Y, Unknown motor
Mass
~800 kg wet, ~800 kg dry
Launch date (UTC)
2026-01-19 (5 months ago)
Launch vehicle
CHANG ZHENG 12
Launch site
Wenchang Satellite Launch Center (WSC)
Object type
Payload
Rocket body
Debris
Shape & HBR
Box + 2 Pan, 2.2 m
Radar Cross Section
5.935 m², Large (>1 m²)

Expand to show TLE details & history
Last TLE update: 6 hours ago

TLE from 6 hours ago
0 HULIANWANG DIGUI-148
1 67524U 26013C   26163.85696947 -.00000073  00000-0  10959-3 0  9996
2 67524  50.0102  11.2918 0001104  98.5269 261.5729 13.29331549 19474
Epoch: 2026-06-12T20:34Z
TLE epoch observation values (Epoch: 2026-06-12T20:34:02.162Z)
Latitude
0.00004°
Longitude
161.60242°
Altitude
1,149.914 km
Speed
7.279 km/s
True Right ascension
00h 45m 10s
True Declination
0° 00' 00"
Sunlit
Object was in daylight at epoch
Visualization orbit readout
Latitude
Unknown
Longitude
Unknown
Altitude
Unknown
Speed
Unknown
Apparent Right ascension
Unknown
Apparent Declination
Unknown
Sunlit
N/A
Visualization observer readout
Local Sidereal Time
12:49:43
Azimuth
Unknown
Elevation
Unknown
Doppler factor
Unknown
Orbital elements
Apogee altitude
1,150.821 km
Perigee altitude
1,149.158 km
Semi-major axis
7,528.126 km
Eccentricity
0.00011
Inclination
50.0102°
RAAN
11.2918°
Arg. of periapsis
98.5269°
True anomaly
261.56039°
Mean anomaly
261.5729°
Eccentric anomaly
261.56664°
Mean motion
3.32287 °/min
Orbital period
108.34 mins
BSTAR
0.00010959
Loading maneuver chart data...
Computing Atmospheric mass density...
Loading historical data...
Loading historical data...
Loading historical data...
Loading historical data...
Loading historical data...
Loading historical data...
Loading historical data...

Documentation

Showing up to 5 results
|